KA5FVT Weather Reports


Display with metric or nautical units.
time (UTC)temp
F
wind
direction
speed
MPH
gust
MPH
rain 1hr
in
rain 24hr
in
rain mn
in
humidity
%
barometer
mb
20260509220927 91 268 0.0 0.0 0.00 0.00 0.00 61 1007.1
20260509220427 90 268 0.0 0.0 0.00 0.00 0.00 62 1007.0
20260509215928 90 268 0.0 0.0 0.00 0.00 0.00 62 1007.1
20260509215427 89 268 0.0 0.0 0.00 0.00 0.00 61 1007.0
20260509214927 89 268 0.0 0.0 0.00 0.00 0.00 62 1006.9
20260509214427 89 268 0.0 1.0 0.00 0.00 0.00 62 1007.2
20260509213927 89 268 0.0 0.0 0.00 0.00 0.00 62 1007.2
20260509213427 89 268 0.0 0.0 0.00 0.00 0.00 63 1007.1
20260509212928 89 268 0.0 2.0 0.00 0.00 0.00 62 1007.1
20260509212427 90 267 1.0 2.0 0.00 0.00 0.00 62 1007.2
20260509211927 90 267 0.0 1.0 0.00 0.00 0.00 63 1007.1
20260509211427 89 267 0.0 1.0 0.00 0.00 0.00 63 1007.2
20260509210927 89 268 0.0 2.0 0.00 0.00 0.00 64 1007.2
20260509210427 89 244 0.0 2.0 0.00 0.00 0.00 64 1007.3
20260509205928 89 227 0.0 2.0 0.00 0.00 0.00 64 1007.5
20260509205427 89 224 0.0 1.0 0.00 0.00 0.00 65 1007.5
20260509204927 89 224 0.0 2.0 0.00 0.00 0.00 63 1007.6
20260509204427 89 223 1.0 2.0 0.00 0.00 0.00 64 1007.7
20260509203927 89 227 0.0 1.0 0.00 0.00 0.00 63 1007.7
20260509203428 90 227 1.0 1.0 0.00 0.00 0.00 64 1008.0
20260509202928 90 227 0.0 1.0 0.00 0.00 0.00 62 1008.0
20260509202427 90 227 0.0 0.0 0.00 0.00 0.00 65 1008.0
20260509201927 90 227 0.0 0.0 0.00 0.00 0.00 64 1008.1
20260509201427 90 227 0.0 1.0 0.00 0.00 0.00 64 1008.1
20260509200927 90 227 0.0 0.0 0.00 0.00 0.00 63 1008.1
20260509200427 90 227 0.0 1.0 0.00 0.00 0.00 64 1008.2
20260509195928 89 227 0.0 1.0 0.00 0.00 0.00 65 1008.3
20260509195427 89 227 0.0 2.0 0.00 0.00 0.00 64 1008.3
20260509194927 89 186 1.0 2.0 0.00 0.00 0.00 64 1008.2
20260509194430 89 269 1.0 2.0 0.00 0.00 0.00 64 1008.3
20260509193927 89 269 0.0 2.0 0.00 0.00 0.00 65 1008.4
20260509193427 89 269 0.0 3.0 0.00 0.00 0.00 64 1008.5
20260509192928 89 259 1.0 1.0 0.00 0.00 0.00 66 1008.5
20260509192427 89 259 0.0 2.0 0.00 0.00 0.00 66 1008.7
20260509191927 88 259 0.0 1.0 0.00 0.00 0.00 67 1008.8
20260509191430 88 259 0.0 3.0 0.00 0.00 0.00 68 1008.8
20260509190927 88 259 1.0 1.0 0.00 0.00 0.00 67 1008.7
20260509190427 87 253 0.0 2.0 0.00 0.00 0.00 67 1008.7
20260509185928 87 253 1.0 2.0 0.00 0.00 0.00 70 1008.8
20260509185427 87 253 2.0 1.0 0.00 0.00 0.00 70 1008.8
20260509184927 86 253 0.0 1.0 0.00 0.00 0.00 70 1008.9
20260509184427 86 253 0.0 0.0 0.00 0.00 0.00 70 1009.0
20260509183930 86 253 0.0 1.0 0.00 0.00 0.00 70 1009.2
20260509183431 86 253 1.0 2.0 0.00 0.00 0.00 69 1009.2
20260509182931 86 292 1.0 3.0 0.00 0.00 0.00 71 1009.1
20260509182427 86 295 2.0 3.0 0.00 0.00 0.00 71 1009.3
20260509181927 86 258 1.0 2.0 0.00 0.00 0.00 71 1009.4
20260509181427 85 253 0.0 2.0 0.00 0.00 0.00 71 1009.6
20260509180930 85 253 0.0 2.0 0.00 0.00 0.00 71 1009.7
20260509180427 85 252 1.0 2.0 0.00 0.00 0.00 72 1009.7
20260509175928 85 259 0.0 2.0 0.00 0.00 0.00 72 1009.7
20260509175430 85 259 0.0 1.0 0.00 0.00 0.00 71 1009.8
20260509174930 85 259 0.0 3.0 0.00 0.00 0.00 71 1010.0
20260509174427 86 208 0.0 1.0 0.00 0.00 0.00 72 1009.9
20260509173927 86 208 1.0 1.0 0.00 0.00 0.00 72 1009.9
20260509173427 86 207 1.0 2.0 0.00 0.00 0.00 74 1009.8
20260509172928 85 212 1.0 2.0 0.00 0.00 0.00 75 1009.7
20260509172427 85 277 0.0 3.0 0.00 0.00 0.00 77 1009.6
20260509171930 84 194 0.0 2.0 0.00 0.00 0.00 78 1009.7
20260509171427 83 279 0.0 1.0 0.00 0.00 0.00 79 1009.6
20260509170927 83 292 0.0 2.0 0.00 0.00 0.00 77 1009.7
20260509170430 82 276 0.0 2.0 0.00 0.00 0.00 81 1009.7
20260509165928 82 149 0.0 0.0 0.00 0.00 0.00 80 1009.7
20260509165427 81 149 0.0 0.0 0.00 0.00 0.00 84 1009.7
20260509164927 80 149 0.0 0.0 0.00 0.00 0.00 85 1009.7
20260509164427 80 149 0.0 0.0 0.00 0.00 0.00 86 1009.7
20260509163930 79 149 0.0 0.0 0.00 0.00 0.00 85 1009.9
20260509163427 79 149 0.0 0.0 0.00 0.00 0.00 86 1009.9
20260509162928 79 149 0.0 0.0 0.00 0.00 0.00 87 1010.0
20260509162427 79 149 0.0 0.0 0.00 0.00 0.00 86 1010.0
20260509161927 79 149 0.0 0.0 0.00 0.00 0.00 86 1010.1
20260509161427 78 149 0.0 0.0 0.00 0.00 0.00 87 1010.0
20260509160928 78 149 0.0 0.0 0.00 0.00 0.00 88 1010.1
20260509160427 78 149 0.0 0.0 0.00 0.00 0.00 88 1010.1
20260509155930 78 149 0.0 0.0 0.00 0.00 0.00 88 1010.2
20260509155427 78 149 0.0 0.0 0.00 0.00 0.00 89 1010.2
20260509154927 78 149 0.0 0.0 0.00 0.00 0.00 88 1010.3
20260509154427 78 149 0.0 0.0 0.00 0.00 0.00 89 1010.4
20260509153927 78 149 0.0 0.0 0.00 0.00 0.00 89 1010.4
20260509153428 78 149 0.0 0.0 0.00 0.00 0.00 89 1010.5
20260509152927 78 149 0.0 0.0 0.00 0.00 0.00 89 1010.5
20260509152427 77 149 0.0 0.0 0.00 0.00 0.00 90 1010.3
20260509151930 77 149 0.0 0.0 0.00 0.00 0.00 90 1010.4
20260509151430 77 149 0.0 0.0 0.00 0.00 0.00 91 1010.3
20260509150931 77 149 0.0 0.0 0.00 0.00 0.00 91 1010.2
20260509150431 77 149 0.0 0.0 0.00 0.00 0.00 92 1010.2
20260509145928 77 149 0.0 0.0 0.00 0.00 0.00 93 1010.0
20260509145427 76 149 0.0 0.0 0.00 0.00 0.00 93 1009.9
20260509144927 76 149 0.0 0.0 0.00 0.00 0.00 94 1009.8
20260509144430 76 149 0.0 0.0 0.00 0.00 0.00 94 1009.6
20260509143927 76 149 0.0 0.0 0.00 0.00 0.00 93 1009.8
20260509143427 76 149 0.0 0.0 0.00 0.00 0.00 94 1009.7
20260509142928 76 149 0.0 0.0 0.00 0.00 0.00 94 1009.9
20260509142430 76 149 0.0 0.0 0.00 0.00 0.00 94 1009.8
20260509141927 76 149 0.0 0.0 0.00 0.00 0.00 95 1009.7
20260509141427 76 149 0.0 0.0 0.00 0.00 0.00 95 1009.4
20260509140927 75 149 0.0 0.0 0.00 0.00 0.00 95 1009.3
20260509140427 75 149 0.0 0.0 0.00 0.00 0.00 95 1009.5
20260509135927 75 149 0.0 0.0 0.00 0.00 0.00 95 1009.6
20260509135431 75 149 0.0 0.0 0.00 0.00 0.00 95 1009.6
20260509134927 75 149 0.0 0.0 0.00 0.00 0.00 95 1009.8
20260509134427 75 149 0.0 0.0 0.00 0.00 0.00 95 1009.8
20260509133928 75 149 0.0 0.0 0.00 0.00 0.00 95 1009.9
20260509133427 75 149 0.0 0.0 0.00 0.00 0.00 95 1009.5
20260509132927 75 149 0.0 0.0 0.00 0.00 0.00 96 1010.1
20260509132427 75 149 0.0 0.0 0.00 0.00 0.00 96 1010.2
20260509131928 74 149 0.0 0.0 0.00 0.00 0.00 96 1010.3
20260509131427 74 149 0.0 0.0 0.00 0.00 0.00 96 1010.2
20260509130927 74 149 0.0 0.0 0.00 0.00 0.00 96 1010.3
20260509130427 74 149 0.0 0.0 0.00 0.00 0.00 96 1010.3
20260509125927 74 149 0.0 0.0 0.00 0.00 0.00 96 1010.3
20260509125427 74 149 0.0 0.0 0.00 0.00 0.00 96 1010.3
20260509124927 74 149 0.0 0.0 0.00 0.00 0.00 96 1010.3
20260509124431 74 149 0.0 0.0 0.00 0.00 0.00 96 1010.1
20260509123927 74 149 0.0 0.0 0.00 0.00 0.00 96 1010.0
20260509123427 74 149 0.0 0.0 0.00 0.00 0.00 96 1010.1
20260509122927 74 149 0.0 0.0 0.00 0.00 0.00 96 1010.1
20260509122427 74 149 0.0 0.0 0.00 0.00 0.00 96 1010.0
20260509121927 74 149 0.0 0.0 0.00 0.00 0.00 95 1009.7
20260509121427 74 149 0.0 0.0 0.00 0.00 0.00 95 1009.5
20260509120931 74 149 0.0 0.0 0.00 0.00 0.00 95 1009.5
20260509120427 74 149 0.0 0.0 0.00 0.00 0.00 95 1009.4
20260509115927 74 149 0.0 0.0 0.00 0.00 0.00 95 1009.3
20260509115430 74 149 0.0 0.0 0.00 0.00 0.00 95 1009.3
20260509114927 74 149 0.0 0.0 0.00 0.00 0.00 95 1009.5
20260509114430 74 149 0.0 0.0 0.00 0.00 0.00 95 1009.6
20260509113927 74 149 0.0 0.0 0.00 0.00 0.00 95 1009.8
20260509113428 74 149 0.0 0.0 0.00 0.00 0.00 95 1009.8
20260509112927 74 149 0.0 0.0 0.00 0.00 0.00 95 1009.7
20260509112430 74 149 0.0 0.0 0.00 0.00 0.00 95 1009.9
20260509111927 74 149 0.0 0.0 0.00 0.00 0.00 95 1009.9
20260509111427 74 149 0.0 0.0 0.00 0.00 0.00 95 1009.9
20260509110927 74 149 0.0 0.0 0.00 0.00 0.00 95 1009.9
20260509110427 73 149 0.0 0.0 0.00 0.00 0.00 95 1010.0
20260509105928 73 149 0.0 0.0 0.00 0.00 0.00 95 1009.9
20260509105427 73 149 0.0 0.0 0.00 0.00 0.00 95 1009.8
20260509104927 73 149 0.0 0.0 0.00 0.00 0.00 95 1009.9
20260509104427 73 149 0.0 0.0 0.00 0.00 0.00 95 1009.8
20260509103927 73 149 0.0 0.0 0.00 0.00 0.00 95 1009.8
20260509103427 73 149 0.0 0.0 0.00 0.00 0.00 95 1009.7
20260509102930 73 149 0.0 0.0 0.00 0.00 0.00 95 1009.5
20260509102428 74 149 0.0 0.0 0.00 0.00 0.00 95 1009.4
20260509101927 74 149 0.0 0.0 0.00 0.00 0.00 94 1009.3
20260509101427 74 149 0.0 0.0 0.00 0.00 0.00 94 1008.9
20260509100927 74 149 0.0 0.0 0.00 0.00 0.00 94 1008.8
20260509100427 74 149 0.0 0.0 0.00 0.00 0.00 94 1008.7
20260509095930 74 149 0.0 0.0 0.00 0.00 0.00 94 1008.5
20260509095427 74 149 0.0 0.0 0.00 0.00 0.00 94 1008.6
20260509094928 74 149 0.0 0.0 0.00 0.00 0.00 94 1008.6
20260509094430 74 149 0.0 0.0 0.00 0.00 0.00 94 1008.7
20260509093927 74 149 0.0 0.0 0.00 0.00 0.00 94 1008.9
20260509093427 74 149 0.0 0.0 0.00 0.00 0.00 94 1009.3
20260509092930 74 149 0.0 0.0 0.00 0.00 0.00 94 1009.3
20260509092427 74 149 0.0 0.0 0.00 0.00 0.00 94 1009.3
20260509091930 74 149 0.0 0.0 0.00 0.00 0.00 94 1009.4
20260509091428 74 149 0.0 0.0 0.00 0.00 0.00 94 1009.5
20260509090927 74 149 0.0 0.0 0.00 0.00 0.00 94 1009.3
20260509090427 74 149 0.0 0.0 0.00 0.00 0.00 94 1009.4
20260509085927 74 149 0.0 0.0 0.00 0.00 0.00 94 1009.3
20260509085427 74 149 0.0 0.0 0.00 0.00 0.00 94 1009.3
20260509084928 74 149 0.0 0.0 0.00 0.00 0.00 94 1009.5
20260509084430 74 149 0.0 0.0 0.00 0.00 0.00 94 1009.4
20260509083931 74 149 0.0 0.0 0.00 0.00 0.00 94 1009.5
20260509083427 74 149 0.0 0.0 0.00 0.00 0.00 94 1009.4
20260509082930 74 149 0.0 0.0 0.00 0.00 0.00 94 1009.4
20260509082427 74 149 0.0 0.0 0.00 0.00 0.00 94 1009.4
20260509081930 74 149 0.0 0.0 0.00 0.00 0.00 94 1009.2
20260509081427 74 149 0.0 0.0 0.00 0.00 0.00 94 1009.1
20260509080927 74 149 0.0 0.0 0.00 0.00 0.00 94 1009.0
20260509080427 74 149 0.0 0.0 0.00 0.00 0.00 94 1009.1
20260509075927 74 149 0.0 0.0 0.00 0.00 0.00 94 1009.2
20260509075430 74 149 0.0 0.0 0.00 0.00 0.00 94 1009.2
20260509074927 74 149 0.0 0.0 0.00 0.00 0.00 94 1009.3
20260509074427 74 149 0.0 0.0 0.00 0.00 0.00 94 1009.3
20260509073927 74 149 0.0 0.0 0.00 0.00 0.00 94 1009.3
20260509073427 74 149 0.0 0.0 0.00 0.00 0.00 94 1009.3
20260509072928 74 149 0.0 0.0 0.00 0.00 0.00 94 1009.4
20260509072427 74 149 0.0 0.0 0.00 0.00 0.00 94 1009.4
20260509071927 74 149 0.0 0.0 0.00 0.00 0.00 94 1009.4
20260509071427 74 149 0.0 0.0 0.00 0.00 0.00 94 1009.3
20260509070927 74 149 0.0 0.0 0.00 0.00 0.00 94 1009.3
20260509070427 74 149 0.0 0.0 0.00 0.00 0.00 94 1009.2
20260509065928 74 149 0.0 0.0 0.00 0.00 0.00 94 1009.4
20260509065428 74 149 0.0 0.0 0.00 0.00 0.00 94 1009.5
20260509064927 74 149 0.0 0.0 0.00 0.00 0.00 94 1009.6
20260509064427 74 149 0.0 0.0 0.00 0.00 0.00 94 1009.5
20260509063927 74 149 0.0 0.0 0.00 0.00 0.00 94 1009.6
20260509063427 74 149 0.0 0.0 0.00 0.00 0.00 94 1009.7
20260509062927 74 149 0.0 0.0 0.00 0.00 0.00 94 1009.7
20260509062427 74 149 0.0 0.0 0.00 0.00 0.00 94 1009.9
20260509061928 74 149 0.0 0.0 0.00 0.00 0.00 94 1009.9
20260509061430 74 149 0.0 0.0 0.00 0.00 0.00 94 1009.9
20260509060927 74 149 0.0 0.0 0.00 0.00 0.00 94 1009.9
20260509060430 74 149 0.0 0.0 0.00 0.00 0.00 94 1009.9
20260509055930 74 149 0.0 0.0 0.00 0.00 0.00 94 1009.9
20260509055427 74 149 0.0 0.0 0.00 0.00 0.00 94 1009.8
20260509054927 74 149 0.0 0.0 0.00 0.00 0.00 94 1009.9
20260509054428 74 149 0.0 0.0 0.00 0.00 0.00 94 1009.9
20260509053927 74 149 0.0 0.0 0.00 0.00 0.00 94 1009.9
20260509053427 74 149 0.0 0.0 0.00 0.00 0.00 94 1009.9
20260509052927 74 149 0.0 0.0 0.00 0.00 0.00 94 1009.8
20260509052427 74 149 0.0 0.0 0.00 0.00 0.00 94 1009.8
20260509051928 74 149 0.0 1.0 0.00 0.00 0.00 94 1009.8
20260509051427 74 149 0.0 0.0 0.00 0.00 0.00 94 1009.7
20260509050931 74 149 0.0 0.0 0.00 0.00 0.00 94 1009.8
20260509050427 74 149 0.0 0.0 0.00 0.00 0.00 94 1009.8
20260509045927 73 149 0.0 0.0 0.00 0.00 0.00 94 1010.0
20260509045427 73 149 0.0 0.0 0.00 0.00 0.00 94 1010.0
20260509044927 73 149 0.0 0.0 0.00 0.00 0.00 94 1009.9
20260509044427 73 149 0.0 0.0 0.00 0.00 0.00 94 1009.9
20260509043928 73 149 0.0 1.0 0.00 0.00 0.00 94 1010.1
20260509043428 73 149 0.0 0.0 0.00 0.00 0.00 94 1010.1
20260509042927 73 149 0.0 0.0 0.00 0.00 0.00 94 1010.2
20260509042427 73 149 0.0 1.0 0.00 0.00 0.00 94 1010.1
20260509041927 73 149 0.0 0.0 0.00 0.00 0.00 94 1010.1
20260509041427 73 149 0.0 0.0 0.00 0.00 0.00 94 1010.0
20260509040927 73 149 0.0 0.0 0.00 0.00 0.00 94 1009.8
20260509040427 73 149 0.0 0.0 0.00 0.00 0.00 94 1009.7
20260509035931 73 149 0.0 0.0 0.00 0.00 0.00 94 1009.7
20260509035430 73 149 0.0 0.0 0.00 0.00 0.00 94 1009.6
20260509034927 73 149 1.0 1.0 0.00 0.00 0.00 94 1009.6
20260509034427 73 149 0.0 0.0 0.00 0.00 0.00 94 1009.5
20260509033927 73 149 0.0 0.0 0.00 0.00 0.00 94 1009.5
20260509033427 73 149 0.0 1.0 0.00 0.00 0.00 94 1009.6
20260509032927 73 149 0.0 1.0 0.00 0.00 0.00 94 1009.6
20260509032427 73 149 0.0 1.0 0.00 0.00 0.00 93 1009.6
20260509031927 73 149 0.0 0.0 0.00 0.00 0.00 93 1009.5
20260509031427 73 149 0.0 1.0 0.00 0.00 0.00 93 1009.5
20260509030927 73 149 0.0 0.0 0.00 0.00 0.00 93 1009.4
20260509030427 73 149 0.0 0.0 0.00 0.00 0.00 93 1009.6
20260509025927 73 149 0.0 1.0 0.00 0.00 0.00 93 1009.4
20260509025427 73 149 0.0 1.0 0.00 0.00 0.00 93 1009.3
20260509024928 73 149 0.0 1.0 0.00 0.00 0.00 93 1009.3
20260509024427 73 149 0.0 2.0 0.00 0.00 0.00 93 1009.1
20260509023927 73 149 0.0 1.0 0.00 0.00 0.00 93 1009.3
20260509023427 73 149 0.0 1.0 0.00 0.00 0.00 93 1009.2
20260509022927 73 149 0.0 2.0 0.00 0.00 0.00 93 1009.3
20260509022427 73 167 0.0 1.0 0.00 0.00 0.00 93 1009.3
20260509021928 73 167 0.0 1.0 0.00 0.00 0.00 92 1009.1
20260509021428 73 167 0.0 1.0 0.00 0.00 0.00 92 1009.0
20260509020927 73 167 0.0 1.0 0.00 0.00 0.00 92 1009.0
20260509020427 74 167 0.0 1.0 0.00 0.00 0.00 92 1008.9
20260509015927 74 167 1.0 4.0 0.00 0.00 0.00 92 1009.0
20260509015427 74 157 0.0 2.0 0.00 0.00 0.00 92 1008.7
20260509014930 74 157 0.0 1.0 0.00 0.00 0.00 92 1008.8
20260509014430 74 157 0.0 1.0 0.00 0.00 0.00 92 1008.9
20260509013927 74 157 0.0 0.0 0.00 0.00 0.00 91 1009.0
20260509013427 74 157 0.0 1.0 0.00 0.00 0.00 91 1008.9
20260509012927 74 157 0.0 1.0 0.00 0.00 0.00 91 1008.9
20260509012427 74 157 0.0 1.0 0.00 0.00 0.00 91 1009.0
20260509011927 74 157 0.0 1.0 0.00 0.00 0.00 91 1008.9
20260509011427 74 157 1.0 2.0 0.00 0.00 0.00 91 1008.8
20260509010927 74 158 1.0 1.0 0.00 0.00 0.00 91 1008.7
20260509010428 74 157 0.0 1.0 0.00 0.00 0.00 91 1008.7
20260509005927 74 157 0.0 1.0 0.00 0.00 0.00 91 1008.5
20260509005430 74 157 0.0 2.0 0.00 0.00 0.00 91 1008.4
20260509004927 74 173 2.0 2.0 0.00 0.00 0.00 90 1008.5
20260509004427 74 175 0.0 1.0 0.00 0.00 0.00 90 1008.6
20260509003927 74 175 0.0 2.0 0.00 0.00 0.00 90 1008.6
20260509003427 74 175 0.0 0.0 0.00 0.00 0.00 90 1008.5
20260509002928 74 175 0.0 1.0 0.00 0.00 0.00 90 1008.6
20260509002430 74 175 1.0 1.0 0.00 0.00 0.00 90 1008.6
20260509001927 74 175 0.0 1.0 0.00 0.00 0.00 90 1008.7
20260509001427 74 175 0.0 1.0 0.00 0.00 0.00 89 1008.8
20260509000930 74 175 0.0 1.0 0.00 0.00 0.00 89 1008.9
20260509000427 74 175 0.0 2.0 0.00 0.00 0.00 89 1008.9
20260508235927 74 169 1.0 1.0 0.00 0.00 0.00 89 1008.9
20260508235428 74 169 0.0 1.0 0.00 0.00 0.00 89 1008.8
20260508234927 74 169 0.0 2.0 0.00 0.00 0.00 89 1008.9
20260508234430 74 169 0.0 2.0 0.00 0.00 0.00 89 1009.0
20260508233930 75 126 1.0 2.0 0.00 0.00 0.00 88 1009.1
20260508233430 75 161 0.0 4.0 0.00 0.00 0.00 88 1009.0
20260508232927 75 177 0.0 2.0 0.00 0.00 0.00 88 1009.0
20260508232427 75 177 1.0 1.0 0.00 0.00 0.00 88 1008.8
20260508231928 75 178 0.0 1.0 0.00 0.00 0.00 88 1009.0
20260508231427 75 178 0.0 5.0 0.00 0.00 0.00 88 1009.1
20260508230927 75 157 1.0 4.0 0.00 0.00 0.00 87 1008.9
20260508230427 75 157 0.0 2.0 0.00 0.00 0.00 87 1008.9
20260508225927 75 157 0.0 1.0 0.00 0.00 0.00 87 1008.9
20260508225427 75 157 1.0 2.0 0.00 0.00 0.00 87 1008.8
20260508224927 76 152 0.0 4.0 0.00 0.00 0.00 86 1008.7
20260508224428 76 161 1.0 1.0 0.00 0.00 0.00 86 1008.8
20260508223927 76 160 0.0 4.0 0.00 0.00 0.00 86 1008.8
20260508223427 76 167 0.0 4.0 0.00 0.00 0.00 86 1008.8
20260508222927 76 173 0.0 4.0 0.00 0.00 0.00 85 1008.8
20260508222427 76 173 0.0 1.0 0.00 0.00 0.00 86 1008.8
20260508221927 76 173 0.0 2.0 0.00 0.00 0.00 85 1008.9
20260508221428 76 174 0.0 4.0 0.00 0.00 0.00 85 1008.9